Location: Bremen
(53.0793°N, 8.8017°E)
Time: 11:36:10
(UTC+02:00)

Altair - Pass Details

Date: 18 April 2024
Orbit: 1501 x 1682 km, 47.2° (Epoch: 17 May)

Event Time Altitude Azimuth Distance (km) Brightness Sun altitude
Rises 22:20:27 0° 245° (WSW) 4,898 10.4 -14.7°
Reaches altitude 10° 22:23:41 10° 242° (WSW) 3,894 9.8 -15.1°
Maximum altitude 22:33:20 59° 167° (SSE) 1,826 7.6 -16.1°
Drops below altitude 10° 22:42:38 10° 92° (E) 3,762 9.1 -17.1°
Enters shadow 22:44:52 - 89° (E) 4,455 9.6 -17.3°
Sets 22:45:42 0° 88° (E) 4,723 - -17.4°
